Home   Weather   Shanghai   Past weeks

Flag for China Past Weather in Shanghai, Shanghai Municipality, China — Yesterday and Last 2 Weeks

Now
43 °F

Clear.


Feels Like: 43 °F
Forecast: 43 / 60 °F
Wind: 1 mph from South

Location: Shanghai Hongqiao Airport

Current Time: Dec 7, 2016 at 4:12:45 am

Latest Report: Dec 7, 2016 at 3:30 am


Visibility: 10 mi

Pressure: 30.24 "Hg

Humidity: 81%

Dew Point: 37 °F

Location of ShanghaiLocation

Past Weather in Shanghai — Graph

°F

Shanghai Temperature Yesterday

Maximum temperature yesterday: 54 °F (at 11:30 am)
Minimum temperature yesterday: 45 °F (at 7:00 am)
Average temperature yesterday: 49 °F

High & Low Weather Summary for the Past Weeks

 TemperatureHumidityPressure
High68 °F (Dec 5, 1:30 pm)100% (Nov 26, 4:00 am)30.51 "Hg (Nov 26, 4:00 am)
Low34 °F (Nov 24, 6:00 am)32% (Dec 5, 3:30 pm)30.07 "Hg (Dec 4, 1:30 pm)
Average50 °F75%30.33 "Hg
* Reported Nov 22 2:00 am — Dec 7 2:00 am, Shanghai, Weather by CustomWeather, © 2016

Note: Actual official high and low records may vary slightly from our data, if they occured in-between our weather recording intervals... More about our weather records

Advertising

Shanghai Weather History for the Previous 24 Hours

Scroll right to see more
 ConditionsComfort  
Time TempWeatherWind HumidityBarometerVisibility
2:00 am
Wed, Dec 7
43 °FClear.1 mph81%30.24 "Hg10 mi
1:30 am43 °FClear.1 mph81%30.27 "Hg10 mi
1:00 am43 °FClear.1 mph71%30.27 "Hg10 mi
12:30 am45 °FClear.No wind71%30.27 "Hg10 mi
12:00 am46 °FClear.1 mph66%30.27 "Hg10 mi
11:30 pm
Tue, Dec 6
45 °FClear.No wind71%30.27 "Hg10 mi
11:00 pm45 °FClear.3 mph71%30.27 "Hg10 mi
10:30 pm45 °FClear.1 mph71%30.27 "Hg10 mi
10:00 pm46 °FClear.3 mph66%30.27 "Hg10 mi
9:30 pm45 °FClear.3 mph71%30.30 "Hg10 mi
9:00 pm46 °FClear.3 mph66%30.30 "Hg10 mi
8:30 pm46 °FClear.3 mph66%30.30 "Hg10 mi
8:00 pm46 °FClear.3 mph66%30.30 "Hg10 mi
7:30 pm46 °FClear.3 mph66%30.30 "Hg10 mi
7:00 pm46 °FClear.3 mph66%30.30 "Hg10 mi
6:30 pm46 °FClear.3 mph66%30.30 "Hg10 mi
6:00 pm48 °FClear.6 mph62%30.30 "Hg10 mi
5:30 pm50 °FPassing clouds.8 mph58%30.30 "HgN/A
5:00 pm50 °FPassing clouds.3 mph54%30.30 "HgN/A
4:30 pm52 °FSunny.3 mph50%30.30 "Hg10 mi
4:00 pm52 °FSunny.1 mph44%30.30 "Hg10 mi
3:30 pm52 °FPassing clouds.3 mph47%30.30 "HgN/A
3:00 pm52 °FSunny.3 mph44%30.33 "Hg10 mi
2:30 pm54 °FPassing clouds.3 mph44%30.33 "HgN/A
2:00 pm54 °FPassing clouds.6 mph44%30.33 "HgN/A
1:30 pm54 °FPassing clouds.6 mph47%30.36 "HgN/A
1:00 pm54 °FSunny.6 mph47%30.36 "Hg10 mi
12:30 pm54 °FSunny.3 mph47%30.39 "Hg10 mi
12:00 pm52 °FPassing clouds.3 mph50%30.39 "HgN/A
11:30 am54 °FScattered clouds.3 mph47%30.42 "HgN/A
11:00 am52 °FScattered clouds.3 mph50%30.45 "HgN/A
10:30 am50 °FScattered clouds.6 mph62%30.45 "HgN/A
10:00 am48 °FScattered clouds.6 mph62%30.48 "HgN/A
9:30 am50 °FPassing clouds.8 mph58%30.48 "HgN/A
9:00 am48 °FPassing clouds.10 mph62%30.48 "HgN/A
8:30 am46 °FSunny.8 mph76%30.48 "Hg10 mi
8:00 am46 °FPassing clouds.8 mph76%30.45 "HgN/A
7:30 am45 °FClear.10 mph81%30.45 "Hg5 mi
7:00 am45 °FScattered clouds.8 mph81%30.45 "Hg4 mi
6:30 am46 °FPassing clouds.10 mph76%30.45 "Hg5 mi
6:00 am46 °FMostly cloudy.13 mph76%30.45 "HgN/A
5:30 am46 °FMostly cloudy.13 mph76%30.42 "HgN/A
5:00 am48 °FMostly cloudy.13 mph76%30.42 "HgN/A
4:30 am48 °FMostly cloudy.13 mph76%30.42 "HgN/A
4:00 am48 °FMostly cloudy.15 mph76%30.42 "HgN/A
Weather by CustomWeather, © 2016

See weather overviewHow to use our weather pages